Weather History for Burlington, CO

Change the Weather History Date:

Tuesday, October 15, 2013

  Actual Average Record
Temperature  
Mean Temperature 39 °F 51 °F  
Max Temperature 50 °F 66 °F 89 °F (1938)
Min Temperature 28 °F 37 °F 23 °F (1952)
Degree Days  
Heating Degree Days 25    
Moisture  
Dew Point 27 °F    
Average Humidity 66    
Maximum Humidity 85    
Minimum Humidity 43    
Precipitation  
Precipitation 0.00 in 0.05 in 1.25 in (1942)
Month to date precipitation 0.40 0.59  
Year to date precipitation 16.30 15.88  
Sea Level Pressure  
Sea Level Pressure 30.21 in    
Wind  
Wind Speed 19 mph (NNW)    
Max Wind Speed 26 mph    
Max Gust Speed 37 mph    
Visibility 10 miles    
Events      
T = Trace of Precipitation, MM = Missing Value Source: NWS Daily Summary

Daily Weather History Graph

Daily Weather History Graph

Search for Another Location

Airport:

Trip Planner

Search our weather history database for the weather conditions in past years. The results will help you decide how hot, cold, wet, or windy it might be!

Date:

Astronomy

Oct. 15, 2013 Rise Set
Actual Time 6:59 AM MDT 6:09 PM MDT
Civil Twilight 6:32 AM MDT 6:36 PM MDT
Nautical Twilight 6:01 AM MDT 7:07 PM MDT
Astronomical Twilight 5:30 AM MDT 7:38 PM MDT
Moon 4:15 PM MDT (10/15) 3:25 AM MDT (10/15)
Length of Visible Light 12h 04m
Length of Day
11h 10m
Waxing Gibbous, 88% of the Moon is Illuminated
Oct 15
Waxing Gibbous
Oct 18
Full
Oct 26
Last Quarter
Nov 3
New
Nov 9
First Quarter

Hourly Weather History & Observations

Time (MDT) Temp. Windchill Dew Point Humidity Pressure Visibility Wind Dir Wind Speed Gust Speed Precip Events Conditions
12:53 AM 36.0 °F 25.0 °F 28.0 °F 73% 30.09 in 10.0 mi NNW 20.7 mph 29.9 mph N/A   Clear
1:53 AM 35.1 °F - 28.0 °F 76% 30.08 in 10.0 mi North - - N/A   Clear
2:53 AM 34.0 °F 22.4 °F 28.0 °F 79% 30.11 in 10.0 mi NNW 20.7 mph - N/A   Clear
3:53 AM 34.0 °F 22.1 °F 28.0 °F 79% 30.12 in 10.0 mi NNW 21.9 mph 29.9 mph N/A   Clear
4:53 AM 34.0 °F 22.4 °F 28.0 °F 79% 30.15 in 10.0 mi NNW 20.7 mph 31.1 mph N/A   Clear
5:53 AM 33.1 °F 21.5 °F 27.0 °F 78% 30.18 in 10.0 mi NW 19.6 mph - N/A   Clear
6:53 AM 33.1 °F 22.2 °F 27.0 °F 78% 30.21 in 10.0 mi NNW 17.3 mph 25.3 mph N/A   Clear
7:53 AM 35.1 °F 24.5 °F 27.0 °F 72% 30.25 in 10.0 mi NNW 18.4 mph 28.8 mph N/A   Clear
8:53 AM 37.9 °F 26.3 °F 27.0 °F 65% 30.26 in 10.0 mi NNW 26.5 mph 36.8 mph N/A   Clear
9:53 AM 42.1 °F 33.1 °F 28.0 °F 58% 30.26 in 10.0 mi NNW 20.7 mph 33.4 mph N/A   Clear
10:53 AM 43.0 °F 34.0 °F 27.0 °F 53% 30.27 in 10.0 mi NNW 21.9 mph 31.1 mph N/A   Partly Cloudy
11:53 AM 46.0 °F 38.3 °F 28.0 °F 50% 30.24 in 10.0 mi NNW 20.7 mph 28.8 mph N/A   Partly Cloudy
12:53 PM 48.0 °F - 28.0 °F 46% 30.22 in 10.0 mi North 20.7 mph 32.2 mph N/A   Clear
1:53 PM 48.9 °F - 28.0 °F 44% 30.19 in 10.0 mi NNW 23.0 mph 29.9 mph N/A   Partly Cloudy
2:53 PM 50.0 °F - 28.0 °F 43% 30.18 in 10.0 mi NNW 16.1 mph 29.9 mph N/A   Scattered Clouds
3:53 PM 46.9 °F - 27.0 °F 46% 30.18 in 10.0 mi North 21.9 mph 26.5 mph N/A   Clear
4:53 PM 46.0 °F 39.3 °F 27.0 °F 47% 30.19 in 10.0 mi North 16.1 mph - N/A   Clear
5:53 PM 42.1 °F 34.9 °F 27.0 °F 55% 30.21 in 10.0 mi North 13.8 mph - N/A   Clear
6:53 PM 37.9 °F 31.5 °F 27.0 °F 65% 30.24 in 10.0 mi North 9.2 mph - N/A   Clear
7:53 PM 37.0 °F 31.0 °F 27.0 °F 67% 30.26 in 10.0 mi NNW 8.1 mph - N/A   Mostly Cloudy
8:53 PM 33.1 °F 27.7 °F 27.0 °F 78% 30.27 in 10.0 mi NW 5.8 mph - N/A   Clear
9:53 PM 30.0 °F 23.2 °F 25.0 °F 82% 30.29 in 10.0 mi WNW 6.9 mph - N/A   Clear
10:53 PM 30.9 °F 24.3 °F 26.1 °F 82% 30.27 in 10.0 mi WNW 6.9 mph - N/A   Clear
11:53 PM 28.9 °F 20.4 °F 25.0 °F 85% 30.23 in 10.0 mi WNW 9.2 mph - N/A   Clear